SA3PJN-WX Weather Reports


Display with metric or nautical units.
time (UTC)temp
F
wind
direction
speed
MPH
gust
MPH
rain 1hr
in
rain 24hr
in
rain mn
in
humidity
%
barometer
mb
20260906024954 46 190 2.0 8.0 0.00 0.00 0.00 10 964.6
20260906024454 47 188 2.0 7.0 0.00 0.00 0.00 99 964.5
20260906023954 47 90 2.0 7.0 0.00 0.00 0.00 99 964.5
20260906023454 47 39 2.0 6.0 0.00 0.00 0.00 99 964.4
20260906022954 47 91 3.0 9.0 0.00 0.00 0.00 99 964.5
20260906022454 47 105 3.0 10.0 0.00 0.00 0.00 99 964.5
20260906021954 47 184 3.0 10.0 0.00 0.00 0.00 99 964.2
20260906021454 48 229 3.0 14.0 0.00 0.00 0.00 99 964.1
20260906020954 48 210 3.0 14.0 0.00 0.00 0.00 99 964.0
20260906020454 48 245 3.0 9.0 0.00 0.00 0.00 99 964.1
20260906015954 48 144 2.0 8.0 0.00 0.00 0.00 10 964.1
20260906015454 48 19 2.0 8.0 0.00 0.00 0.00 10 964.1
20260906014953 48 260 2.0 6.0 0.00 0.00 0.00 10 964.0
20260906014453 48 248 2.0 7.0 0.00 0.00 0.00 10 964.0
20260906013953 47 173 2.0 9.0 0.00 0.00 0.00 10 964.0
20260906013453 47 108 2.0 9.0 0.00 0.00 0.00 10 964.0
20260906012953 47 27 2.0 7.0 0.00 0.00 0.00 10 964.0
20260906012453 47 97 2.0 9.0 0.00 0.00 0.00 10 964.0
20260906011953 47 102 2.0 9.0 0.00 0.00 0.00 10 964.0
20260906011453 47 92 2.0 8.0 0.00 0.00 0.00 10 963.9
20260906010953 48 90 2.0 9.0 0.00 0.00 0.00 10 963.9
20260906010453 48 29 3.0 11.0 0.00 0.00 0.00 10 963.8
20260906005953 48 114 3.0 11.0 0.00 0.00 0.00 99 963.9
20260906005453 48 120 3.0 11.0 0.00 0.00 0.00 99 963.9
20260906004953 48 89 2.0 8.0 0.00 0.00 0.00 10 963.8
20260906004453 49 240 3.0 11.0 0.00 0.00 0.00 99 963.9
20260906003953 49 84 3.0 11.0 0.00 0.00 0.00 10 963.8
20260906003453 49 136 3.0 11.0 0.00 0.00 0.00 10 963.7
20260906002953 49 142 3.0 10.0 0.00 0.00 0.00 10 963.6
20260906002453 49 183 3.0 11.0 0.00 0.00 0.00 10 963.6
20260906001952 49 247 3.0 11.0 0.00 0.00 0.00 10 963.5
20260906001452 49 87 3.0 9.0 0.00 0.00 0.00 10 963.5
20260906000952 49 171 3.0 9.0 0.00 0.00 0.00 10 963.6
20260906000452 49 159 3.0 11.0 0.00 0.00 0.00 10 963.5
20260905235952 49 133 4.0 13.0 0.00 0.00 0.00 99 963.4
20260905235452 49 160 4.0 13.0 0.00 0.00 0.00 99 963.3
20260905234952 49 237 3.0 12.0 0.00 0.00 0.00 10 963.2
20260905234452 49 212 3.0 12.0 0.00 0.00 0.00 10 963.1
20260905233952 49 87 3.0 10.0 0.00 0.00 0.00 10 963.1
20260905233422 49 81 3.0 11.0 0.00 0.00 0.00 10 963.0
20260905232922 49 79 3.0 12.0 0.00 0.00 0.00 10 963.1
20260905232422 49 63 3.0 12.0 0.00 0.00 0.00 10 963.0
20260905231922 49 156 3.0 12.0 0.00 0.00 0.00 10 963.0
20260905231421 49 105 3.0 9.0 0.00 0.00 0.00 10 962.8
20260905230921 49 66 3.0 10.0 0.00 0.00 0.00 99 962.8
20260905230421 50 275 3.0 10.0 0.00 0.00 0.00 99 962.8
20260905225921 50 103 3.0 9.0 0.00 0.00 0.00 99 962.7
20260905225421 50 165 3.0 9.0 0.00 0.00 0.00 99 962.6
20260905224921 50 128 3.0 9.0 0.00 0.00 0.00 99 962.6
20260905224421 50 144 3.0 11.0 0.00 0.00 0.00 99 962.5
20260905223921 50 4 4.0 12.0 0.00 0.00 0.00 98 962.5
20260905223421 51 227 4.0 12.0 0.00 0.00 0.00 98 962.4
20260905222921 51 159 5.0 12.0 0.00 0.00 0.00 98 962.4
20260905222421 51 221 5.0 12.0 0.00 0.00 0.00 98 962.2
20260905221921 51 99 4.0 11.0 0.00 0.00 0.00 98 962.2
20260905221421 51 189 4.0 12.0 0.00 0.00 0.00 98 962.2
20260905220921 51 233 5.0 12.0 0.00 0.00 0.00 98 962.0
20260905220420 51 237 5.0 12.0 0.00 0.00 0.00 98 962.0
20260905215920 51 223 4.0 14.0 0.00 0.00 0.00 99 961.8
20260905215420 51 202 4.0 14.0 0.00 0.00 0.00 99 961.8
20260905214920 51 258 4.0 10.0 0.00 0.00 0.00 10 961.8
20260905214420 52 222 4.0 10.0 0.00 0.00 0.00 99 961.8
20260905213920 52 201 3.0 10.0 0.00 0.00 0.00 99 961.7
20260905213420 52 326 2.0 10.0 0.00 0.00 0.00 99 961.6
20260905212850 51 74 2.0 6.0 0.00 0.00 0.00 99 961.5
20260905212350 51 78 2.0 6.0 0.00 0.00 0.00 99 961.4
20260905211850 51 228 2.0 8.0 0.00 0.00 0.00 98 961.4
20260905211350 51 90 2.0 8.0 0.00 0.00 0.00 99 961.4
20260905210850 51 127 2.0 7.0 0.00 0.00 0.00 99 961.3
20260905210350 51 70 2.0 7.0 0.00 0.00 0.00 98 961.2
20260905205850 51 107 2.0 5.0 0.00 0.00 0.00 98 961.0
20260905205350 51 90 2.0 9.0 0.00 0.00 0.00 98 960.9
20260905204849 51 32 3.0 9.0 0.00 0.00 0.00 98 960.9
20260905204349 51 94 3.0 8.0 0.00 0.00 0.00 98 961.0
20260905203849 51 112 3.0 7.0 0.00 0.00 0.00 98 961.0
20260905203349 52 233 2.0 7.0 0.00 0.00 0.00 98 960.9
20260905202849 52 123 2.0 7.0 0.00 0.00 0.00 98 960.9
20260905202349 52 83 2.0 9.0 0.00 0.00 0.00 98 960.9
20260905201849 52 311 2.0 9.0 0.00 0.00 0.00 98 960.7
20260905201349 52 251 2.0 9.0 0.00 0.00 0.00 98 960.7
20260905200849 52 273 2.0 6.0 0.00 0.00 0.00 98 960.7
20260905200349 52 182 3.0 7.0 0.00 0.00 0.00 98 960.7
20260905195849 52 236 4.0 7.0 0.00 0.00 0.00 98 960.6
20260905195349 52 237 4.0 8.0 0.00 0.00 0.00 97 960.5
20260905194849 52 236 5.0 8.0 0.00 0.00 0.00 96 960.5
20260905194349 52 229 5.0 8.0 0.00 0.00 0.00 94 960.4
20260905193849 52 233 5.0 8.0 0.00 0.00 0.00 91 960.4
20260905193348 52 236 5.0 8.0 0.00 0.00 0.00 90 960.3
20260905192848 52 206 4.0 8.0 0.00 0.00 0.00 91 960.4
20260905192348 53 234 4.0 8.0 0.00 0.00 0.00 93 960.4
20260905191848 53 231 5.0 8.0 0.00 0.00 0.00 91 960.3
20260905191348 53 236 5.0 6.0 0.00 0.00 0.00 90 960.3
20260905190848 53 236 4.0 6.0 0.00 0.00 0.00 89 960.1
20260905190348 53 237 4.0 6.0 0.00 0.00 0.00 88 960.1
20260905185848 53 234 4.0 6.0 0.00 0.00 0.00 89 960.1
20260905185348 53 238 4.0 6.0 0.00 0.00 0.00 91 959.9
20260905184848 53 236 4.0 5.0 0.00 0.00 0.00 92 960.0
20260905184348 52 240 3.0 5.0 0.00 0.00 0.00 91 960.0
20260905183848 53 240 3.0 4.0 0.00 0.00 0.00 91 959.8
20260905183348 53 236 3.0 4.0 0.00 0.00 0.00 89 959.8
20260905182848 53 235 3.0 4.0 0.00 0.00 0.00 89 959.8
20260905182348 53 238 3.0 5.0 0.00 0.00 0.00 89 959.6
20260905181848 53 240 3.0 5.0 0.00 0.00 0.00 89 959.6
20260905181348 53 246 3.0 4.0 0.00 0.00 0.00 89 959.7
20260905180847 53 231 3.0 4.0 0.00 0.00 0.00 91 959.5
20260905180347 53 234 2.0 4.0 0.00 0.00 0.00 92 959.5
20260905175847 53 238 3.0 4.0 0.00 0.00 0.00 92 959.4
20260905175347 53 234 3.0 4.0 0.00 0.00 0.00 91 959.4
20260905174847 53 236 3.0 4.0 0.00 0.00 0.00 90 959.3
20260905174347 53 239 2.0 4.0 0.00 0.00 0.00 89 959.3
20260905173847 54 236 2.0 3.0 0.00 0.00 0.00 88 959.2
20260905173347 54 249 2.0 3.0 0.00 0.00 0.00 86 959.1
20260905172847 54 249 2.0 3.0 0.00 0.00 0.00 85 959.0
20260905172347 54 250 2.0 3.0 0.00 0.00 0.00 85 959.1
20260905171847 54 246 2.0 2.0 0.00 0.00 0.00 86 959.0
20260905171347 55 241 2.0 3.0 0.00 0.00 0.00 85 958.9
20260905170847 55 239 2.0 4.0 0.00 0.00 0.00 84 958.8
20260905170347 55 250 2.0 4.0 0.00 0.00 0.00 83 958.8
20260905165847 55 247 2.0 4.0 0.00 0.00 0.00 82 958.7
20260905165347 55 250 2.0 4.0 0.00 0.00 0.00 84 958.6
20260905164847 56 244 2.0 4.0 0.00 0.00 0.00 81 958.5
20260905164347 56 246 2.0 6.0 0.00 0.00 0.00 83 958.4
20260905163847 56 279 3.0 6.0 0.00 0.00 0.00 82 958.4
20260905163346 56 218 3.0 6.0 0.00 0.00 0.00 81 958.5
20260905162846 56 238 2.0 5.0 0.00 0.00 0.00 81 958.5
20260905162346 56 235 2.0 5.0 0.00 0.00 0.00 82 958.3
20260905161846 56 266 2.0 5.0 0.00 0.00 0.00 80 958.2
20260905161346 56 239 3.0 5.0 0.00 0.00 0.00 81 958.0
20260905160846 56 241 3.0 5.0 0.00 0.00 0.00 83 958.0
20260905160346 56 274 3.0 5.0 0.00 0.00 0.00 81 958.1
20260905155846 56 293 3.0 6.0 0.00 0.00 0.00 82 958.0
20260905155346 56 299 3.0 6.0 0.00 0.00 0.00 84 958.0
20260905154846 56 240 3.0 6.0 0.00 0.00 0.00 85 958.0
20260905154346 56 203 3.0 6.0 0.00 0.00 0.00 85 958.0
20260905153846 56 259 4.0 8.0 0.00 0.00 0.00 87 958.0
20260905153346 56 270 4.0 8.0 0.00 0.00 0.00 85 958.0
20260905152846 56 308 4.0 7.0 0.00 0.00 0.00 85 957.9
20260905152346 56 298 4.0 7.0 0.00 0.00 0.00 84 957.8
20260905151846 56 233 4.0 7.0 0.00 0.00 0.00 85 957.8
20260905151346 56 280 4.0 8.0 0.00 0.00 0.00 84 957.8
20260905150845 56 255 4.0 8.0 0.00 0.00 0.00 87 957.8
20260905150345 56 306 3.0 7.0 0.00 0.00 0.00 83 957.7
20260905145845 57 230 3.0 7.0 0.00 0.00 0.00 84 957.7
20260905145345 56 307 3.0 5.0 0.00 0.00 0.00 81 957.7
20260905144845 56 255 3.0 5.0 0.00 0.00 0.00 85 957.7
20260905144345 56 277 3.0 8.0 0.00 0.00 0.00 82 957.6
20260905143845 56 315 3.0 8.0 0.00 0.00 0.00 80 957.7
20260905143345 56 277 3.0 6.0 0.00 0.00 0.00 79 957.5
20260905142845 56 313 3.0 8.0 0.00 0.00 0.00 81 957.4
20260905142345 55 272 3.0 8.0 0.00 0.00 0.00 83 957.4
20260905141845 56 268 4.0 7.0 0.00 0.00 0.00 81 957.2
20260905141345 57 323 4.0 7.0 0.00 0.00 0.00 77 957.5
20260905140845 58 299 3.0 10.0 0.00 0.00 0.00 74 957.2
20260905140345 60 274 2.0 11.0 0.00 0.00 0.00 76 957.1
20260905135844 60 242 3.0 11.0 0.00 0.00 0.00 78 957.1
20260905135344 60 141 2.0 8.0 0.00 0.00 0.00 76 957.1
20260905134844 61 216 2.0 6.0 0.00 0.00 0.00 72 957.1
20260905134344 60 136 2.0 6.0 0.00 0.00 0.00 76 956.9
20260905133844 58 234 2.0 5.0 0.00 0.00 0.00 77 956.9
20260905133344 58 272 2.0 5.0 0.00 0.00 0.00 81 957.0
20260905132844 58 329 2.0 5.0 0.00 0.00 0.00 80 956.8
20260905132345 58 164 2.0 8.0 0.00 0.00 0.00 84 956.9
20260905131844 58 262 2.0 8.0 0.00 0.00 0.00 80 956.9
20260905131344 59 81 2.0 7.0 0.00 0.00 0.00 81 957.0
20260905130844 58 120 3.0 9.0 0.00 0.00 0.00 83 957.0
20260905130344 57 255 4.0 9.0 0.00 0.00 0.00 81 956.9
20260905125844 57 255 3.0 8.0 0.00 0.00 0.00 81 956.8
20260905125344 56 282 4.0 8.0 0.00 0.00 0.00 85 956.9
20260905124844 56 247 4.0 9.0 0.00 0.00 0.00 86 956.8
20260905124344 55 249 4.0 11.0 0.00 0.00 0.00 91 956.9
20260905123843 54 247 4.0 11.0 0.00 0.00 0.00 91 956.8
20260905123343 55 243 4.0 10.0 0.00 0.00 0.00 93 956.8
20260905122843 54 260 4.0 7.0 0.00 0.00 0.00 96 956.6
20260905122343 54 295 3.0 7.0 0.00 0.00 0.00 94 956.6
20260905121843 53 268 3.0 7.0 0.00 0.00 0.00 95 956.6
20260905121343 54 300 3.0 6.0 0.00 0.00 0.00 95 956.6
20260905120843 54 286 3.0 6.0 0.00 0.00 0.00 93 956.5
20260905120343 55 283 3.0 7.0 0.00 0.00 0.00 88 956.5
20260905115843 56 282 3.0 7.0 0.00 0.00 0.00 80 956.5
20260905115343 57 239 2.0 7.0 0.00 0.00 0.00 76 956.6
20260905114843 58 222 2.0 6.0 0.00 0.00 0.00 78 956.5
20260905114343 60 211 1.0 5.0 0.00 0.00 0.00 80 956.6
20260905113843 61 226 2.0 8.0 0.00 0.00 0.00 80 956.4
20260905113313 60 249 2.0 8.0 0.00 0.00 0.00 77 956.3
20260905112813 61 55 2.0 8.0 0.00 0.00 0.00 82 956.5
20260905112313 61 121 2.0 8.0 0.00 0.00 0.00 78 956.2
20260905111812 61 141 2.0 8.0 0.00 0.00 0.00 82 956.3
20260905111312 60 136 2.0 8.0 0.00 0.00 0.00 84 956.3
20260905110812 59 91 2.0 7.0 0.00 0.00 0.00 87 956.1
20260905110312 58 128 2.0 7.0 0.00 0.00 0.00 88 956.1
20260905105812 57 81 1.0 5.0 0.00 0.00 0.00 91 956.0
20260905105312 57 167 1.0 5.0 0.00 0.00 0.00 92 956.0
20260905104812 56 326 2.0 6.0 0.00 0.00 0.00 93 956.0
20260905104312 56 153 1.0 6.0 0.00 0.00 0.00 94 956.0
20260905103812 56 155 1.0 6.0 0.00 0.00 0.00 94 956.0
20260905103312 56 111 1.0 6.0 0.00 0.00 0.00 95 956.0
20260905102812 56 16 1.0 4.0 0.00 0.00 0.00 96 956.0
20260905102312 55 234 1.0 5.0 0.00 0.00 0.00 95 956.0
20260905101812 55 89 1.0 5.0 0.00 0.00 0.00 95 956.0
20260905101312 56 154 1.0 5.0 0.00 0.00 0.00 96 955.9
20260905100812 56 189 1.0 5.0 0.00 0.00 0.00 96 955.9
20260905100312 56 204 1.0 5.0 0.00 0.00 0.00 96 955.8
20260905095812 56 84 1.0 5.0 0.00 0.00 0.00 97 955.6
20260905095311 56 78 1.0 5.0 0.00 0.00 0.00 96 955.6
20260905094811 56 175 1.0 5.0 0.00 0.00 0.00 97 955.6
20260905094311 55 169 1.0 4.0 0.00 0.00 0.00 97 955.5
20260905093811 55 167 0.0 3.0 0.00 0.00 0.00 98 955.6
20260905093311 54 151 1.0 4.0 0.00 0.00 0.00 97 955.4
20260905092811 53 174 2.0 4.0 0.00 0.00 0.00 98 955.4
20260905092311 53 339 2.0 5.0 0.00 0.00 0.00 97 955.2
20260905091811 53 277 2.0 5.0 0.00 0.00 0.00 98 955.3
20260905091311 53 16 2.0 5.0 0.00 0.00 0.00 97 955.3
20260905090811 53 45 2.0 6.0 0.00 0.00 0.00 99 955.4
20260905090311 52 2 2.0 6.0 0.00 0.00 0.00 10 955.3
20260905085811 52 37 2.0 5.0 0.00 0.00 0.00 10 955.1
20260905085311 51 170 2.0 5.0 0.00 0.00 0.00 10 955.1
20260905084811 51 314 3.0 6.0 0.00 0.00 0.00 10 955.0
20260905084311 51 325 3.0 7.0 0.00 0.00 0.00 10 955.0
20260905083810 51 356 3.0 7.0 0.00 0.00 0.00 10 955.0
20260905083310 51 260 2.0 5.0 0.00 0.00 0.00 10 954.9
20260905082810 51 339 2.0 5.0 0.00 0.00 0.00 10 954.9
20260905082310 51 272 2.0 5.0 0.00 0.00 0.00 10 954.9
20260905081810 51 259 2.0 4.0 0.00 0.00 0.00 99 954.8
20260905081310 51 331 1.0 4.0 0.00 0.00 0.00 99 954.8
20260905080810 52 9 1.0 3.0 0.00 0.00 0.00 10 954.8
20260905080310 52 148 1.0 3.0 0.00 0.00 0.00 10 954.8
20260905075810 51 50 1.0 3.0 0.00 0.00 0.00 10 954.8
20260905075310 51 238 1.0 3.0 0.00 0.00 0.00 10 954.8
20260905074810 51 53 1.0 4.0 0.00 0.00 0.00 10 954.7
20260905074310 50 349 1.0 6.0 0.00 0.00 0.00 10 954.7
20260905073810 50 93 2.0 6.0 0.00 0.00 0.00 10 954.7
20260905073310 50 338 2.0 5.0 0.00 0.00 0.00 10 954.6
20260905072809 50 35 2.0 5.0 0.00 0.00 0.00 10 954.5
20260905072309 49 0 2.0 5.0 0.00 0.00 0.00 10 954.4
20260905071809 49 344 3.0 5.0 0.00 0.00 0.00 10 954.4
20260905071309 49 247 3.0 5.0 0.00 0.00 0.00 10 954.3
20260905070809 49 248 3.0 6.0 0.00 0.00 0.00 10 954.2
20260905070309 49 281 3.0 6.0 0.00 0.00 0.00 10 954.2
20260905065809 50 242 1.0 6.0 0.00 0.00 0.00 99 954.2
20260905065309 51 240 1.0 3.0 0.00 0.00 0.00 99 954.3
20260905064809 50 144 1.0 3.0 0.00 0.00 0.00 10 954.3
20260905064309 50 247 1.0 3.0 0.00 0.00 0.00 99 954.1
20260905063809 50 87 0.0 1.0 0.00 0.00 0.00 10 954.2
20260905063309 49 68 0.0 2.0 0.00 0.00 0.00 10 954.1
20260905062809 49 189 1.0 3.0 0.00 0.00 0.00 10 954.1
20260905062309 48 159 1.0 3.0 0.00 0.00 0.00 10 954.1
20260905061809 49 94 0.0 2.0 0.00 0.00 0.00 10 954.0
20260905061309 48 216 0.0 2.0 0.00 0.00 0.00 10 954.0
20260905060809 48 146 1.0 2.0 0.00 0.00 0.00 10 953.9
20260905060308 48 115 1.0 4.0 0.00 0.00 0.00 10 953.9
20260905055808 47 56 2.0 4.0 0.00 0.00 0.00 10 953.9
20260905055308 47 333 2.0 4.0 0.00 0.00 0.00 10 953.8
20260905054808 47 282 2.0 4.0 0.00 0.00 0.00 10 953.8
20260905054308 47 295 2.0 4.0 0.00 0.00 0.00 10 953.8
20260905053808 47 238 1.0 3.0 0.00 0.00 0.00 10 953.7
20260905053308 47 248 1.0 2.0 0.00 0.00 0.00 10 953.6
20260905052738 47 219 1.0 3.0 0.00 0.00 0.00 10 953.8
20260905052238 47 119 1.0 3.0 0.00 0.00 0.00 10 953.7
20260905051738 47 132 1.0 4.0 0.00 0.00 0.00 10 953.7
20260905051238 47 2 1.0 4.0 0.00 0.00 0.00 10 953.6
20260905050738 47 306 1.0 2.0 0.00 0.00 0.00 10 953.6
20260905050238 46 344 1.0 2.0 0.00 0.00 0.00 10 953.5
20260905045738 46 258 1.0 3.0 0.00 0.00 0.00 10 953.6
20260905045238 46 306 1.0 3.0 0.00 0.00 0.00 99 953.5
20260905044738 46 259 1.0 3.0 0.00 0.00 0.00 98 953.5
20260905044237 47 89 1.0 3.0 0.00 0.00 0.00 98 953.4
20260905043737 47 147 1.0 3.0 0.00 0.00 0.00 98 953.4
20260905043237 47 128 1.0 2.0 0.00 0.00 0.00 98 953.4
20260905042737 47 107 0.0 2.0 0.00 0.00 0.00 98 953.4
20260905042237 47 139 0.0 2.0 0.00 0.00 0.00 99 953.5
20260905041737 47 120 0.0 3.0 0.00 0.00 0.00 99 953.5
20260905041237 46 95 1.0 4.0 0.00 0.00 0.00 99 953.5
20260905040737 47 118 1.0 4.0 0.00 0.00 0.00 98 953.5
20260905040237 47 93 0.0 2.0 0.00 0.00 0.00 99 953.5
20260905035737 47 156 0.0 1.0 0.00 0.00 0.00 98 953.4
20260905035237 46 147 0.0 2.0 0.00 0.00 0.00 99 953.4
20260905034737 46 222 0.0 2.0 0.00 0.00 0.00 99 953.4
20260905034237 46 90 1.0 2.0 0.00 0.00 0.00 99 953.4
20260905033737 45 229 1.0 3.0 0.00 0.00 0.00 99 953.3
20260905033236 45 81 1.0 3.0 0.00 0.00 0.00 99 953.2
20260905032736 45 53 1.0 2.0 0.00 0.00 0.00 10 953.2
20260905032236 45 150 1.0 3.0 0.00 0.00 0.00 10 953.1
20260905031736 44 104 1.0 3.0 0.00 0.00 0.00 10 953.2
20260905031236 44 103 1.0 4.0 0.00 0.00 0.00 10 953.1
20260905030736 44 35 2.0 4.0 0.00 0.00 0.00 10 953.2
20260905030236 44 301 3.0 5.0 0.00 0.00 0.00 10 953.1
20260905025736 44 308 3.0 5.0 0.00 0.00 0.00 10 953.1